Date String (YYYY-MM-DD hh:mm:ss) UTC,Instrument flags,Ambient pressure (hPa),Sample flow (lpm),Bypass flow (lpm),Sample temperature (°C),Ambient temperature (°C),ASC tube jacket temperature (°C),LED temperature (°C),Box temperature (°C),Sample RH (%),Span deviation,Mass concentration (μg/m³),Mass concentration (μg/m³),Mass concentration (μg/m³)
DateTimeUTC,F1_M11,P_M11,Q1_M11,Q2_M11,T1_M11,T2_M11,T3_M11,T4_M11,T5_M11,U1_M11,ZSPAN_M11,X0_M11,X2_M11,X1_M11
2021-09-01 15:00:00,,0823.3,5.01,0.00,29.7,28.5,00.0,38.8,31.5,22.3,0001.0,0049.78,0029.37,0026.63
2021-09-01 15:01:00,,0823.3,5.00,0.00,29.8,28.6,00.0,38.8,31.6,22.1,0001.0,0050.95,0029.40,0026.66
2021-09-01 15:02:00,,0823.3,4.99,0.00,29.8,28.7,00.0,38.9,31.6,22.2,0001.2,0049.19,0029.33,0026.65
2021-09-01 15:03:00,,0823.4,5.01,0.00,29.8,28.8,00.0,38.9,31.6,21.8,0001.2,0047.82,0029.23,0026.62
2021-09-01 15:04:00,,0823.4,4.99,0.00,29.8,28.8,00.0,38.9,31.6,21.2,0001.4,0047.44,0029.20,0026.62
2021-09-01 15:05:00,,0823.4,5.01,0.00,29.9,28.9,00.0,38.9,31.7,20.5,0001.5,0047.78,0029.26,0026.68
2021-09-01 15:06:00,,0823.4,4.99,0.00,29.9,28.9,00.0,38.9,31.7,21.2,0001.6,0048.60,0029.28,0026.68
2021-09-01 15:07:00,,0823.4,5.01,0.00,29.9,29.0,00.0,38.9,31.8,22.3,0001.6,0047.66,0029.12,0026.59
2021-09-01 15:08:00,,0823.4,5.00,0.00,29.9,29.0,00.0,38.9,31.7,22.6,0001.4,0047.06,0028.97,0026.45
2021-09-01 15:09:00,,0823.4,4.99,0.00,30.0,29.1,00.0,39.0,31.8,22.4,0001.5,0047.63,0028.81,0026.30
2021-09-01 15:10:00,,0823.4,5.00,0.00,30.0,29.1,00.0,39.0,31.8,22.2,0001.4,0047.95,0028.71,0026.16
2021-09-01 15:11:00,,0823.4,5.00,0.00,30.0,29.2,00.0,39.0,31.9,21.7,0001.3,0046.81,0028.43,0025.95
2021-09-01 15:12:00,,0823.3,5.00,0.00,30.1,29.1,00.0,39.0,31.9,22.0,0001.2,0045.10,0028.16,0025.70
2021-09-01 15:13:00,,0823.3,5.00,0.00,30.0,27.6,00.0,39.0,31.5,22.1,0001.1,0046.51,0028.00,0025.49
2021-09-01 15:14:00,,0823.3,4.99,0.00,29.8,26.1,00.0,39.0,31.1,22.4,0001.1,0046.92,0027.84,0025.29
2021-09-01 15:15:00,,0823.3,5.02,0.00,29.7,26.1,00.0,39.0,31.1,22.6,0000.9,0047.57,0027.73,0025.13
2021-09-01 15:16:00,,0823.3,5.00,0.00,29.7,26.5,00.0,38.9,31.2,24.0,0000.8,0047.92,0027.64,0024.99
2021-09-01 15:17:00,,0823.4,5.00,0.00,29.6,27.0,00.0,38.9,31.2,25.3,0000.9,0047.92,0027.47,0024.83
2021-09-01 15:18:00,,0823.4,4.99,0.00,29.6,27.4,00.0,38.8,31.3,26.1,0000.8,0048.32,0027.36,0024.70
2021-09-01 15:19:00,,0823.4,5.00,0.00,29.6,27.7,00.0,38.8,31.3,26.0,0001.0,0050.81,0027.32,0024.59
2021-09-01 15:20:00,,0823.3,5.01,0.00,29.6,27.9,00.0,38.8,31.4,25.3,0001.0,0050.54,0027.32,0024.52
2021-09-01 15:21:00,,0823.3,4.99,0.00,29.7,28.1,00.0,38.8,31.4,25.6,0001.2,0049.45,0027.19,0024.44
2021-09-01 15:22:00,,0823.4,5.00,0.00,29.7,28.3,00.0,38.8,31.5,25.5,0001.3,0049.38,0027.28,0024.42
2021-09-01 15:23:00,,0823.4,5.00,0.00,29.7,28.5,00.0,38.8,31.5,24.7,0001.3,0048.80,0027.29,0024.42
2021-09-01 15:24:00,,0823.4,5.00,0.00,29.7,28.6,00.0,38.8,31.5,26.7,0001.3,0047.55,0027.27,0024.37
2021-09-01 15:25:00,,0823.4,5.01,0.00,29.8,28.7,00.0,38.8,31.6,26.4,0001.0,0048.02,0027.28,0024.33
2021-09-01 15:26:00,,0823.3,4.99,0.00,29.8,28.7,00.0,38.8,31.6,24.9,0000.9,0048.30,0027.26,0024.31
2021-09-01 15:27:00,,0823.3,5.01,0.00,29.8,28.8,00.0,38.9,31.7,25.1,0000.8,0047.99,0027.21,0024.26
2021-09-01 15:28:00,,0823.4,4.99,0.00,29.8,28.9,00.0,38.9,31.7,24.1,0000.7,0047.50,0027.19,0024.24
2021-09-01 15:29:00,,0823.4,5.01,0.00,29.9,28.9,00.0,38.9,31.7,23.0,0000.9,0047.22,0027.27,0024.31
2021-09-01 15:30:00,,0823.4,4.99,0.00,29.9,29.0,00.0,38.9,31.8,23.2,0000.8,0044.83,0027.34,0024.40
2021-09-01 15:31:00,,0823.4,4.99,0.00,29.9,29.0,00.0,38.9,31.8,22.4,0000.8,0044.65,0027.41,0024.50
2021-09-01 15:32:00,,0823.4,5.00,0.00,29.9,29.1,00.0,39.0,31.8,22.3,0000.9,0045.85,0027.56,0024.59
2021-09-01 15:33:00,,0823.4,5.01,0.00,30.0,29.1,00.0,39.0,31.8,21.7,0001.0,0046.47,0027.59,0024.65
2021-09-01 15:34:00,,0823.4,4.99,0.00,30.0,29.0,00.0,39.0,31.8,22.2,0001.2,0048.16,0027.69,0024.77
2021-09-01 15:35:00,,0823.4,5.01,0.00,29.9,27.4,00.0,39.0,31.4,21.7,0001.3,0050.22,0027.85,0024.92
2021-09-01 15:36:00,,0823.4,4.98,0.00,29.7,26.0,00.0,38.9,31.0,21.0,0001.3,0050.92,0027.89,0025.06
2021-09-01 15:37:00,,0823.3,5.00,0.00,29.7,26.1,00.0,38.9,31.0,21.5,0001.4,0050.12,0027.97,0025.17
2021-09-01 15:38:00,,0823.4,5.00,0.00,29.6,26.6,00.0,38.9,31.1,22.3,0001.4,0049.07,0028.08,0025.32
2021-09-01 15:39:00,,0823.4,4.99,0.00,29.6,27.0,00.0,38.8,31.1,22.0,0001.5,0049.10,0028.15,0025.42
2021-09-01 15:40:00,,0823.4,5.01,0.00,29.6,27.4,00.0,38.8,31.2,21.0,0001.6,0049.49,0028.20,0025.48
2021-09-01 15:41:00,,0823.5,5.00,0.00,29.6,27.7,00.0,38.8,31.3,21.1,0001.7,0049.57,0028.21,0025.48
2021-09-01 15:42:00,,0823.6,5.00,0.00,29.6,27.9,00.0,38.8,31.3,21.3,0001.8,0049.07,0028.24,0025.48
2021-09-01 15:43:00,,0823.6,4.99,0.00,29.6,28.1,00.0,38.8,31.3,21.4,0001.7,0049.12,0028.20,0025.48
2021-09-01 15:44:00,,0823.6,5.00,0.00,29.6,28.3,00.0,38.8,31.4,21.8,0001.4,0048.81,0028.15,0025.48
2021-09-01 15:45:00,,0823.7,5.00,0.00,29.7,28.4,00.0,38.8,31.4,21.7,0001.3,0047.31,0028.15,0025.51
2021-09-01 15:46:00,,0823.6,4.99,0.00,29.7,28.5,00.0,38.8,31.5,21.7,0001.1,0045.02,0028.13,0025.53
2021-09-01 15:47:00,,0823.6,5.00,0.00,29.7,28.6,00.0,38.8,31.5,20.8,0001.2,0043.67,0028.16,0025.55
2021-09-01 15:48:00,,0823.5,5.00,0.00,29.7,28.7,00.0,38.8,31.6,21.0,0001.1,0043.40,0028.18,0025.57
2021-09-01 15:49:00,,0823.5,5.00,0.00,29.8,28.8,00.0,38.8,31.6,21.0,0001.1,0045.41,0028.24,0025.59
2021-09-01 15:50:00,,0823.5,5.00,0.00,29.8,28.9,00.0,38.8,31.7,22.0,0001.3,0045.51,0028.26,0025.62
2021-09-01 15:51:00,,0823.5,5.01,0.00,29.8,28.9,00.0,38.8,31.7,23.1,0001.1,0045.03,0028.30,0025.69
2021-09-01 15:52:00,,0823.6,4.99,0.00,29.9,29.0,00.0,38.9,31.7,23.2,0001.0,0045.55,0028.41,0025.78
2021-09-01 15:53:00,,0823.6,5.00,0.00,29.9,29.0,00.0,38.9,31.7,23.8,0000.8,0046.73,0028.42,0025.84
2021-09-01 15:54:00,,0823.6,4.99,0.00,29.9,29.1,00.0,38.9,31.7,24.2,0000.9,0047.62,0028.44,0025.90
2021-09-01 15:55:00,,0823.6,5.01,0.00,30.0,29.1,00.0,38.9,31.8,24.2,0000.9,0047.89,0028.53,0026.01
2021-09-01 15:56:00,,0823.6,4.99,0.00,30.0,28.8,00.0,39.0,31.8,24.7,0001.1,0048.42,0028.65,0026.09
2021-09-01 15:57:00,,0823.6,4.99,0.00,29.9,27.0,00.0,38.9,31.3,25.4,0001.2,0049.07,0028.73,0026.15
2021-09-01 15:58:00,,0823.6,5.00,0.00,29.7,25.9,00.0,38.9,31.0,25.6,0001.1,0051.38,0028.85,0026.19
2021-09-01 15:59:00,,0823.6,5.02,0.00,29.6,26.1,00.0,38.9,31.0,26.2,0001.2,0052.23,0028.92,0026.24
